{"data":{"norad_id":60493,"intl_designator":"2024-149AB","name":"NUSAT-50 (NANCY ROMAN)","alt_names":[],"object_type":"PAYLOAD","status":"ACTIVE","operator":null,"country":"ARGN","launch_date":"2024-08-16","launch_site_code":"AFWTR","launch_vehicle":null,"mission":null,"orbit_class":"UNKNOWN","rcs_meters":null,"size_class":null,"mass_kg":null,"dimensions":null,"purposes":[],"wikipedia_slug":null,"has_3d_model":false,"image_url":null,"decayed_at":null,"tle_current":{"epoch":"2026-05-24T22:41:16.810944Z","epoch_age_seconds":83813,"freshness":"FRESH","line1":"1 60493U 24149AB  26144.94533346  .00008142  00000+0  28831-3 0  9995","line2":"2 60493  97.3788 226.3711 0001719 280.3338  79.7709 15.29387750 98578","mean_motion":15.2938775,"eccentricity":0.0001719,"inclination_deg":97.3788,"raan_deg":226.3711,"arg_perigee_deg":280.3338,"mean_anomaly_deg":79.7709,"bstar":0.00028831,"rev_number":9857,"period_min":94.15532457351,"perigee_km":476.46286650128,"apogee_km":478.81988310654,"semimajor_km":6855.7783748039,"source":"CELESTRAK","updated_at":"2026-05-25T13:38:02.116071Z"}}}